Flag for Japan Weather past 2 weeks in Matsuyama, Japan

Now
33 °F

Chilly.


Feels Like: 30 °F
Forecast: 31 / 50 °F
Wind: 3 mph from Southeast

Location: Matsuyama

Current Time: Dec 19, 2014 at 2:29:51 AM

Latest Report: Dec 19, 2014 at 1:00 AM


Visibility: N/A

Pressure: 30.50 "Hg

Humidity: 74%

Dew point: 26 °F

Location of MatsuyamaLocation

Historic Weather in Matsuyama — Graph

°F

Matsuyama temperature yesterday

Maximum temperature yesterday: 40 °F (at 3:00 PM)
Minimum temperature yesterday: 35 °F (at 4:00 AM)
Average temperature yesterday: 37 °F

Past Weeks' High & Low Weather Summary

 TemperatureHumidityPressure
High59 °F (Dec 10, 3:00 PM)96% (Dec 16, 11:00 AM)30.51 "Hg (Dec 16, 11:00 AM)
Low33 °F (Dec 19, 1:00 AM)37% (Dec 6, 2:00 PM)29.81 "Hg (Dec 16, 3:00 PM)
Average43 °F62%30.18 "Hg
* Reported Dec 4 1:00 AM — Dec 19 1:00 AM, Matsuyama, Weather by CustomWeather, © 2014

Note: Actual official high and low records may vary slightly from our data, if they occured in-between our weather recording intervals... More about our weather records

Advertising

Matsuyama weather history for previous 24 hours

 ConditionsComfort  
Time TempWeatherWind HumidityBarometerVisibility
1:00 AM
Dec 19
33 °FChilly.3 mph74%30.50 "HgN/A
12:00 AM35 °FChilly.2 mph69%30.51 "HgN/A
11:00 PM
Dec 18
35 °FChilly.7 mph69%30.50 "HgN/A
10:00 PM36 °FChilly.3 mph65%30.49 "HgN/A
9:00 PM35 °FOvercast.5 mph66%30.48 "Hg12 mi
8:00 PM35 °FChilly.5 mph62%30.47 "HgN/A
7:00 PM36 °FChilly.2 mph61%30.45 "HgN/A
6:00 PM38 °FPassing clouds.6 mph51%30.42 "Hg12 mi
5:00 PM40 °FChilly.9 mph45%30.40 "HgN/A
4:00 PM40 °FChilly.6 mph45%30.37 "HgN/A
3:00 PM40 °FPartly sunny.8 mph44%30.36 "Hg12 mi
2:00 PM40 °FChilly.6 mph47%30.35 "HgN/A
1:00 PM39 °FChilly.6 mph47%30.34 "HgN/A
11:00 AM38 °FChilly.10 mph48%30.35 "HgN/A
10:00 AM37 °FChilly.10 mph49%30.34 "HgN/A
9:00 AM36 °FOvercast.7 mph51%30.32 "Hg16 mi
8:00 AM36 °FChilly.8 mph49%30.30 "HgN/A
7:00 AM35 °FChilly.7 mph52%30.27 "HgN/A
6:00 AM35 °FOvercast.7 mph50%30.24 "Hg12 mi
5:00 AM35 °FChilly.10 mph49%30.21 "HgN/A
4:00 AM35 °FChilly.10 mph52%30.20 "HgN/A
3:00 AM35 °FOvercast.9 mph52%30.20 "Hg12 mi
2:00 AM35 °FChilly.8 mph52%30.18 "HgN/A
Weather by CustomWeather, © 2014

See weather overviewHow to use our weather pages